Date,TemperatureHighF,TemperatureAvgF,TemperatureLowF,DewpointHighF,DewpointAvgF,DewpointLowF,HumidityHigh,HumidityAvg,HumidityLow,PressureMaxIn,PressureMinIn,WindSpeedMaxMPH,WindSpeedAvgMPH,GustSpeedMaxMPH,PrecipitationSumIn
2013-1-1,31.5,26.8,19.0,26.9,21.9,15.8,91,82,67,30.18,30.07,9,4,12,0.00
2013-1-2,25.3,15.9,6.9,17.2,10.9,3.9,91,80,71,30.26,30.17,6,2,9,0.00
2013-1-3,30.0,23.9,13.6,25.5,18.5,6.4,87,80,71,30.28,30.18,12,6,17,0.00
2013-1-4,28.8,22.2,13.9,24.3,18.5,11.3,91,85,78,30.30,30.22,15,8,25,0.00
2013-1-5,36.2,28.4,19.1,29.7,24.3,17.1,92,85,72,30.32,30.09,10,2,17,0.00
2013-1-6,35.6,31.4,25.9,32.2,27.9,22.6,91,87,85,30.34,29.97,13,7,20,0.00
2013-1-7,37.1,27.2,17.9,27.9,23.2,16.5,94,85,68,30.43,30.20,6,2,12,0.00
2013-1-8,40.2,31.7,23.8,30.9,26.4,21.6,91,81,69,30.28,30.17,5,1,8,0.00
2013-1-9,45.1,38.9,28.5,35.7,32.0,22.8,84,76,59,30.49,30.12,15,6,21,0.00
2013-1-10,40.4,32.7,23.1,36.8,28.0,21.0,94,83,68,30.54,30.08,7,2,11,0.23
2013-1-11,53.7,48.3,38.5,51.5,46.2,36.7,98,92,86,30.05,29.75,16,4,22,0.36
2013-1-12,56.9,50.6,44.4,50.8,47.5,43.3,98,89,79,29.94,29.78,8,2,16,0.32
2013-1-13,44.5,34.5,22.8,43.4,33.2,20.3,97,95,90,30.17,29.77,13,7,20,0.51
2013-1-14,23.1,19.9,16.3,19.6,16.8,13.2,93,88,83,30.49,30.19,13,5,18,0.00
2013-1-15,29.3,21.4,13.0,22.3,17.9,11.1,94,86,74,30.46,30.18,4,0,9,0.00
2013-1-16,35.1,28.1,20.0,28.6,22.9,18.5,95,82,60,30.17,29.93,16,6,23,0.00
2013-1-17,33.7,29.7,22.1,28.5,24.0,16.5,91,80,65,30.40,30.06,14,7,21,0.00
2013-1-18,38.7,29.4,18.9,27.8,20.7,14.6,86,70,57,30.47,30.06,11,4,19,0.00
2013-1-19,48.4,41.6,37.1,37.2,32.4,27.8,78,70,61,30.05,29.78,17,8,33,0.00
2013-1-20,41.3,23.7,18.4,34.7,15.8,11.2,82,72,53,30.26,29.79,26,11,37,0.00
2013-1-21,19.1,13.9,8.3,11.6,6.5,0.6,80,72,64,30.26,30.12,17,11,27,0.00
2013-1-22,12.8,8.1,3.5,2.5,0.3,-1.5,80,70,59,30.41,30.26,15,8,21,0.00
2013-1-23,19.5,14.6,9.3,15.8,7.6,1.5,89,73,61,30.38,30.14,13,8,21,0.00
2013-1-24,21.3,16.0,9.5,14.6,7.5,4.5,87,70,51,30.66,30.23,16,2,19,0.00
2013-1-25,24.3,21.0,17.9,21.2,15.6,9.1,89,80,66,30.45,30.05,8,2,12,0.00
2013-1-26,26.8,24.6,22.5,21.9,19.8,18.3,87,82,75,30.45,30.10,12,5,14,0.00
2013-1-27,33.3,26.4,18.8,32.0,22.0,15.8,95,83,74,30.46,30.08,7,2,12,0.10
2013-1-28,47.8,44.1,33.8,47.0,43.5,32.5,99,98,95,30.07,29.93,9,3,15,0.17
2013-1-29,58.4,54.3,47.5,56.7,53.6,47.2,99,97,94,29.94,29.37,9,4,18,0.78
2013-1-30,60.7,44.7,29.3,58.1,43.4,26.7,99,95,88,29.46,29.18,22,7,33,0.75
2013-1-31,27.4,19.4,11.4,24.3,15.4,6.2,91,84,75,30.07,29.51,21,13,30,0.00
2013-2-1,14.7,10.0,4.7,9.2,5.6,1.2,88,82,76,30.41,30.10,15,8,23,0.00
2013-2-2,25.0,19.7,13.9,22.0,16.7,9.4,91,88,82,30.28,30.00,10,4,16,0.00
2013-2-3,20.9,16.3,11.5,16.6,12.6,7.5,91,85,77,30.10,29.98,13,5,18,0.00
2013-2-4,27.1,22.4,13.4,22.9,19.6,11.0,93,89,84,30.10,29.86,3,1,6,0.00
2013-2-5,31.7,24.7,13.2,28.7,22.0,11.8,95,90,74,30.03,29.84,11,3,19,0.01
2013-2-6,38.3,29.8,21.2,26.3,23.6,18.5,93,78,59,30.29,30.04,7,2,12,0.05
2013-2-7,44.8,35.0,28.5,34.9,29.7,25.1,95,81,65,30.22,29.80,7,2,8,0.07
2013-2-8,34.1,31.3,27.0,33.1,27.1,21.1,97,84,74,30.37,29.80,20,8,24,0.01
2013-2-9,37.1,27.5,18.8,26.8,22.4,17.4,94,81,65,30.45,30.22,8,2,11,0.00
2013-2-10,47.6,38.5,30.5,46.2,33.6,24.5,95,83,72,30.21,29.64,5,2,14,0.08
2013-2-11,48.6,36.9,30.9,46.5,30.8,24.2,93,78,71,29.99,29.61,27,14,38,0.03
2013-2-12,33.3,29.7,27.5,27.2,24.6,22.6,85,81,76,30.12,29.97,14,7,21,0.00
2013-2-13,42.1,31.5,20.8,32.3,26.3,19.4,94,82,64,29.97,29.76,10,2,13,0.00
2013-2-14,39.7,35.5,28.5,35.0,30.9,25.7,94,84,67,29.97,29.74,16,6,29,0.00
2013-2-15,33.2,29.1,24.3,27.0,22.8,17.6,89,77,67,30.18,29.96,12,5,16,0.00
2013-2-16,24.6,19.8,14.9,20.5,15.3,11.2,89,82,73,30.17,30.09,14,6,20,0.00
2013-2-17,30.0,19.9,12.0,14.8,12.1,8.7,87,72,51,30.27,30.16,6,2,13,0.00
2013-2-18,53.9,37.7,23.3,42.3,28.8,14.4,91,71,60,30.18,29.54,8,3,25,0.11
2013-2-19,44.2,22.4,15.5,42.0,18.5,10.7,93,85,78,30.11,29.49,21,14,32,0.06
2013-2-20,22.2,17.8,12.3,18.8,13.6,8.7,87,83,79,30.36,30.11,17,10,22,0.00
2013-2-21,27.3,23.9,20.5,20.4,18.6,15.9,84,80,74,30.40,30.13,8,4,13,0.00
2013-2-22,34.3,28.4,21.0,32.8,26.2,17.9,96,91,82,30.11,29.89,11,4,20,0.03
2013-2-23,30.0,27.2,25.5,25.2,22.4,20.8,88,82,73,29.99,29.93,12,8,18,0.00
2013-2-24,36.7,27.8,20.8,27.9,22.3,18.3,91,80,64,30.18,29.98,10,3,18,0.01
2013-2-25,42.7,31.2,19.7,30.0,25.2,18.3,95,80,60,30.23,30.03,6,1,10,0.01
2013-2-26,34.3,33.0,31.5,32.9,29.5,25.4,97,87,73,30.01,29.46,10,3,19,0.13
2013-2-27,34.2,32.6,31.0,32.7,31.6,30.0,98,96,93,29.63,29.46,10,3,17,0.18
2013-2-28,36.5,33.9,31.6,32.9,31.6,28.9,98,91,86,29.98,29.62,13,7,16,0.17
2013-3-1,33.5,30.3,25.1,29.8,25.5,20.1,95,82,70,30.14,29.98,8,4,11,0.00
2013-3-2,32.0,27.4,24.8,22.7,20.3,18.9,82,74,63,30.14,30.08,10,5,20,0.00
2013-3-3,32.2,26.9,22.7,21.6,19.6,16.7,81,73,63,30.13,30.07,11,5,17,0.00
2013-3-4,37.3,26.7,15.1,27.6,19.6,13.3,93,76,53,30.18,30.05,3,1,8,0.00
2013-3-5,32.9,30.2,26.8,28.7,27.2,24.9,97,89,75,30.08,29.74,8,4,17,0.00
2013-3-6,34.4,30.7,26.0,29.9,27.3,25.0,97,87,78,30.27,29.83,10,6,20,0.05
2013-3-7,37.0,33.2,25.6,31.0,28.5,22.8,94,83,64,30.42,30.26,8,4,11,0.07
2013-3-8,43.3,29.5,16.1,25.5,22.1,14.7,95,76,46,30.52,30.42,4,1,7,0.00
2013-3-9,44.4,35.9,26.4,35.5,29.4,22.3,86,77,62,30.42,29.98,6,3,11,0.00
2013-3-10,59.9,50.6,40.7,46.0,40.4,34.7,79,68,57,29.97,29.72,5,2,10,0.04
2013-3-11,54.4,44.2,34.4,48.9,41.5,31.8,99,91,62,29.76,29.56,17,6,28,0.30
2013-3-12,34.8,32.3,30.1,31.1,28.2,25.0,96,85,71,29.98,29.77,19,10,22,0.00
2013-3-13,31.0,27.9,25.8,27.5,22.2,18.6,90,79,67,30.33,29.98,17,10,26,0.00
2013-3-14,39.2,31.1,23.7,30.1,22.0,18.2,86,69,52,30.35,30.15,9,4,14,0.00
2013-3-15,44.5,37.0,30.1,40.9,34.1,28.6,97,89,76,30.15,29.79,9,2,10,0.27
2013-3-16,40.2,35.7,30.6,39.4,33.8,26.4,97,93,80,30.10,29.64,8,3,13,0.00
2013-3-17,38.3,30.9,28.4,26.2,23.8,22.4,85,75,57,30.22,30.09,10,3,14,0.00
2013-3-18,35.8,31.6,27.8,34.6,29.1,22.4,97,90,79,30.08,29.61,14,5,25,0.01
2013-3-19,34.9,27.9,21.9,23.9,19.0,16.4,81,70,53,30.07,29.79,26,16,34,0.00
2013-3-20,30.2,25.2,20.8,20.3,16.3,12.3,86,69,57,30.07,30.00,17,10,21,0.00
2013-3-21,32.6,24.0,16.6,21.8,17.9,13.4,90,78,59,30.05,29.99,14,8,18,0.00
2013-3-22,40.9,29.5,20.4,25.5,20.0,16.9,87,69,48,30.08,30.00,9,3,14,0.00
2013-3-23,41.9,31.6,23.7,27.6,23.4,18.5,89,72,54,30.14,30.00,10,2,15,0.00
2013-3-24,35.9,31.5,28.0,27.4,25.4,23.8,92,78,64,30.01,29.58,11,4,20,0.00
2013-3-25,37.4,31.9,27.8,30.8,28.5,26.3,96,88,68,29.99,29.58,14,7,23,0.08
2013-3-26,38.4,35.0,32.3,31.8,30.2,28.8,91,83,70,30.23,30.00,12,8,19,0.00
2013-3-27,41.6,35.8,31.2,32.6,29.0,24.8,89,77,58,30.31,30.23,13,6,17,0.00
2013-3-28,48.1,36.0,24.6,30.6,25.8,21.4,88,68,47,30.35,30.28,8,2,18,0.00
2013-3-29,50.6,38.1,27.5,33.0,27.1,23.8,93,67,41,30.33,30.23,9,2,15,0.00
2013-3-30,55.9,40.8,25.4,37.0,29.9,22.5,89,67,46,30.26,29.94,7,1,13,0.00
2013-3-31,57.6,47.3,38.8,43.1,38.2,33.4,97,73,42,29.93,29.68,21,6,25,0.00
2013-4-1,39.5,34.9,30.2,32.6,24.3,18.4,82,66,50,30.16,29.81,21,8,23,0.00
2013-4-2,41.0,32.6,22.3,22.8,19.2,12.2,86,60,31,30.30,30.16,16,5,22,0.00
2013-4-3,47.1,33.7,20.4,24.1,17.6,12.9,86,56,25,30.46,30.31,8,2,15,0.00
2013-4-4,55.5,39.5,26.7,29.9,23.2,18.4,75,54,30,30.36,29.99,8,2,10,0.00
2013-4-5,52.8,42.8,34.9,32.2,28.5,20.6,77,59,28,30.20,29.97,13,4,16,0.00
2013-4-6,66.3,49.0,32.8,41.4,31.4,25.5,76,52,35,30.17,29.75,10,4,21,0.00
2013-4-7,61.8,54.8,46.7,47.3,43.2,37.5,87,66,50,29.96,29.67,14,6,29,0.01
2013-4-8,69.6,54.3,43.8,57.6,46.1,36.4,94,75,55,29.97,29.73,22,4,29,0.22
2013-4-9,75.6,61.8,48.7,61.3,53.0,44.6,90,74,57,29.99,29.82,14,4,24,0.00
2013-4-10,63.7,53.1,45.7,59.4,50.9,44.3,96,92,82,29.87,29.76,10,2,17,0.40
2013-4-11,45.8,43.5,40.6,44.6,42.6,39.8,98,97,95,29.84,29.58,7,2,24,0.88
2013-4-12,42.2,40.3,38.3,41.4,37.1,33.3,98,88,79,29.86,29.58,13,8,25,0.13
2013-4-13,43.3,38.9,34.7,35.9,33.6,30.5,94,82,65,30.00,29.87,18,8,25,0.04
2013-4-14,64.4,48.7,36.3,50.0,41.4,32.9,90,77,59,30.05,29.82,9,2,13,0.00
2013-4-15,66.1,58.8,51.6,57.2,51.9,45.3,87,78,73,29.90,29.81,7,2,14,0.00
2013-4-16,57.5,49.0,44.2,55.3,43.8,37.5,96,83,63,30.22,29.88,12,4,17,0.30
2013-4-17,55.2,50.3,45.8,49.4,43.6,37.7,93,78,70,30.24,29.93,14,4,27,0.42
2013-4-18,72.6,58.4,46.0,66.8,56.4,43.8,97,93,82,29.92,29.52,11,4,30,1.81
2013-4-19,60.0,40.8,37.5,59.2,36.6,32.2,97,85,77,29.87,29.47,27,13,32,0.82
2013-4-20,42.9,37.2,32.4,32.5,27.5,22.5,91,69,49,30.45,29.88,16,8,23,0.00
2013-4-21,52.6,39.4,26.9,33.3,27.1,21.8,85,63,42,30.58,30.42,9,2,14,0.00
2013-4-22,65.8,49.7,33.2,41.7,34.8,29.8,87,60,34,30.41,30.11,7,1,12,0.00
2013-4-23,67.5,54.6,43.4,55.8,46.9,39.6,96,76,57,30.12,29.81,16,3,21,0.84
2013-4-24,45.6,40.1,36.3,42.4,35.6,30.1,97,85,56,30.18,29.80,17,8,22,0.25
2013-4-25,49.9,42.9,36.9,38.7,35.0,32.3,86,74,55,30.37,30.15,15,5,23,0.00
2013-4-26,63.7,47.1,30.9,41.9,36.1,29.6,95,69,42,30.44,30.33,6,2,11,0.00
2013-4-27,69.8,55.2,38.3,49.8,41.0,36.2,92,63,35,30.34,30.04,6,2,14,0.00
2013-4-28,58.0,55.1,52.1,55.6,52.9,49.6,97,93,74,30.03,29.81,3,1,8,0.24
2013-4-29,70.0,59.9,51.2,56.6,54.2,50.4,99,83,61,29.94,29.85,9,2,14,0.00
2013-4-30,81.3,67.2,54.5,64.0,57.6,51.0,88,72,54,29.98,29.88,9,3,12,0.00
2013-5-1,84.1,70.5,54.0,60.4,56.9,51.7,92,65,41,30.14,29.98,5,1,10,0.00
2013-5-2,80.4,69.2,59.3,59.2,56.8,54.8,87,66,46,30.15,30.04,7,2,12,0.00
2013-5-3,76.3,68.2,57.6,61.2,56.6,49.9,92,68,50,30.05,29.91,9,2,13,0.00
2013-5-4,73.5,65.9,58.9,50.5,46.3,41.0,64,50,31,29.99,29.92,7,2,13,0.00
2013-5-5,70.2,62.3,52.8,52.1,47.9,44.1,74,60,48,29.99,29.94,4,0,8,0.00
2013-5-6,72.2,63.7,53.2,55.8,49.3,41.9,77,60,48,29.99,29.92,0,0,9,0.00
2013-5-7,73.9,63.9,52.2,56.4,53.4,49.7,91,70,47,30.00,29.94,5,1,11,0.00
2013-5-8,77.1,64.2,52.8,59.6,54.6,50.8,94,73,47,30.01,29.93,11,1,15,0.00
2013-5-9,78.9,63.0,50.9,62.6,56.1,49.8,97,81,42,29.97,29.86,6,1,15,0.06
2013-5-10,65.5,59.0,47.7,60.7,56.2,46.9,97,90,78,29.89,29.76,14,6,17,0.36
2013-5-11,56.8,48.0,44.9,53.0,44.5,37.5,98,88,69,29.99,29.82,13,6,29,0.07
2013-5-12,51.8,44.6,39.3,38.7,35.0,31.1,89,70,49,30.12,29.99,18,7,21,0.00
2013-5-13,59.7,47.7,34.6,35.5,32.4,24.7,94,60,26,30.19,30.10,14,2,17,0.00
2013-5-14,84.8,65.6,49.8,62.8,47.1,29.8,70,52,32,30.09,29.70,13,4,19,0.00
2013-5-15,81.5,74.4,68.3,62.7,57.9,52.5,73,57,39,29.78,29.65,11,5,23,0.00
2013-5-16,84.0,68.5,54.5,58.4,51.6,44.2,93,60,27,29.94,29.77,4,1,8,0.00
2013-5-17,83.2,67.3,55.7,62.7,53.5,43.7,86,63,39,30.04,29.94,4,1,12,0.00
2013-5-18,79.4,68.0,57.9,64.1,54.3,42.1,82,62,54,30.08,29.95,3,1,7,0.00
2013-5-19,87.8,72.7,58.1,68.2,61.1,51.8,81,68,50,29.97,29.80,6,1,7,0.00
2013-5-20,86.5,77.5,69.2,71.2,68.3,65.7,93,74,59,29.85,29.75,6,2,15,0.00
2013-5-21,84.3,74.6,64.0,68.8,64.8,62.4,96,73,51,29.77,29.67,10,2,26,0.04
2013-5-22,76.0,69.8,64.0,65.8,63.7,59.3,92,81,66,29.72,29.62,9,2,27,0.06
2013-5-23,63.8,56.5,47.9,60.5,54.1,45.1,96,92,88,30.16,29.71,15,6,18,0.18
2013-5-24,62.0,51.1,40.8,45.0,41.5,38.4,94,72,43,30.37,30.17,8,4,15,0.00
2013-5-25,65.7,54.4,39.6,50.4,43.0,37.3,94,67,44,30.38,30.24,4,1,9,0.00
2013-5-26,72.8,60.0,44.7,50.9,44.1,39.7,89,59,36,30.30,30.16,5,1,8,0.00
2013-5-27,61.0,56.1,49.9,58.8,52.1,44.3,98,87,57,30.18,29.88,6,2,13,0.45
2013-5-28,80.1,70.2,58.4,70.1,65.7,57.8,99,86,69,29.91,29.79,10,2,14,0.43
2013-5-29,85.4,74.7,65.0,69.3,65.8,62.1,91,75,55,29.96,29.85,7,2,20,0.00
2013-5-30,86.3,76.8,68.3,72.0,67.4,63.5,87,74,56,30.00,29.87,6,2,15,0.04
2013-5-31,76.3,70.6,62.9,70.0,66.6,62.0,98,88,76,29.93,29.81,16,2,27,2.48
2013-6-1,74.2,67.8,63.4,67.2,65.0,63.1,99,92,73,29.84,29.70,11,2,17,2.22
2013-6-2,68.7,61.1,50.0,64.7,56.6,44.7,93,85,77,29.99,29.70,12,6,17,0.00
2013-6-3,69.1,56.1,44.8,50.4,45.5,43.5,95,70,44,30.09,30.00,4,1,11,0.00
2013-6-4,74.0,61.4,47.3,51.9,48.9,45.5,94,67,40,30.16,30.08,4,1,9,0.00
2013-6-5,76.6,66.3,55.3,58.6,51.1,41.8,68,58,43,30.10,29.89,4,1,8,0.00
2013-6-6,75.3,65.5,58.3,58.3,52.3,41.7,75,63,44,29.92,29.78,5,2,12,0.00
2013-6-7,70.6,63.6,58.0,56.6,55.2,52.6,90,75,58,29.88,29.83,5,1,10,0.00
2013-6-8,78.2,64.4,51.5,59.2,55.0,50.4,97,74,49,29.99,29.88,3,0,9,0.00
2013-6-9,82.8,71.6,63.9,66.2,61.8,57.7,93,73,45,30.01,29.84,2,0,9,0.12
2013-6-10,76.6,69.1,65.3,67.4,65.3,63.6,98,89,66,29.83,29.72,9,2,16,0.58
2013-6-11,82.5,70.0,62.0,69.0,65.0,61.4,98,85,61,29.92,29.81,8,3,13,0.00
2013-6-12,88.9,74.7,66.6,76.9,70.5,65.5,98,88,67,29.89,29.61,11,1,30,1.52
2013-6-13,75.0,68.4,62.4,66.7,61.0,55.8,98,79,56,29.94,29.50,22,7,25,0.11
2013-6-14,81.0,66.8,56.3,63.0,58.3,54.5,95,76,47,30.07,29.94,7,1,12,0.00
2013-6-15,75.4,66.5,58.7,66.7,62.8,57.8,97,88,70,30.07,29.90,4,0,7,0.11
2013-6-16,79.7,72.5,65.7,70.3,67.3,64.2,95,84,70,29.90,29.85,9,4,15,0.08
2013-6-17,84.7,74.7,66.9,68.7,65.3,60.6,98,76,46,29.91,29.84,5,1,9,0.00
2013-6-18,77.2,70.0,64.4,64.5,61.6,56.9,90,76,58,30.00,29.83,4,2,11,0.00
2013-6-19,81.3,66.2,53.9,59.7,53.3,48.0,84,64,45,30.12,30.00,2,0,5,0.00
2013-6-20,85.5,70.6,57.1,69.2,61.7,53.9,90,74,57,30.16,30.09,2,0,4,0.00
2013-6-21,87.4,75.7,64.5,68.0,64.4,60.2,90,70,41,30.15,29.96,4,1,12,0.00
2013-6-22,86.2,75.2,68.0,76.8,69.7,65.2,93,83,70,30.08,29.96,7,1,11,0.00
2013-6-23,86.9,74.9,66.0,73.4,68.5,64.8,97,82,57,30.06,29.96,10,2,15,0.01
2013-6-24,86.5,75.3,67.0,74.1,69.2,64.9,96,83,61,30.06,29.90,10,2,36,0.14
2013-6-25,88.1,74.6,66.6,76.4,69.8,65.4,97,86,62,29.96,29.77,8,2,29,0.22
2013-6-26,83.5,71.7,65.8,74.9,69.2,64.9,98,92,75,29.88,29.70,8,1,14,1.94
2013-6-27,84.3,73.6,67.2,74.2,70.0,66.6,99,89,68,29.74,29.64,8,3,14,0.35
2013-6-28,79.5,72.4,66.4,68.9,66.1,63.3,99,82,61,29.65,29.54,16,5,19,0.00
2013-6-29,73.3,67.9,63.2,67.1,64.2,62.0,98,88,77,29.68,29.53,6,2,10,0.02
2013-6-30,78.9,67.8,62.3,65.5,62.5,61.2,96,84,57,29.89,29.68,5,1,10,0.61
2013-7-1,74.4,66.5,60.5,63.5,58.9,52.5,88,77,66,29.99,29.89,10,2,12,0.04
2013-7-2,70.9,64.3,57.9,66.8,60.6,54.4,95,88,68,30.01,29.97,5,1,11,0.03
2013-7-3,79.9,71.2,65.0,68.1,65.6,64.2,98,84,59,30.06,29.97,5,1,11,0.14
2013-7-4,80.1,69.3,61.7,66.1,63.3,61.1,98,83,58,30.12,30.04,3,0,5,0.00
2013-7-5,83.0,73.1,64.9,70.8,67.2,63.7,97,83,63,30.09,30.01,5,1,7,0.00
2013-7-6,76.2,71.3,68.0,71.0,68.5,66.8,97,91,78,30.07,29.97,4,1,9,0.13
2013-7-7,82.1,73.3,66.3,72.7,69.0,65.4,97,87,69,30.03,29.95,8,1,11,0.00
2013-7-8,82.2,74.8,69.3,75.3,71.2,67.9,96,89,79,30.04,29.93,10,2,15,0.10
2013-7-9,84.9,79.6,74.3,78.0,75.1,72.8,95,86,74,29.97,29.86,9,3,13,0.00
2013-7-10,81.6,76.9,63.7,77.1,72.6,58.7,93,87,63,29.95,29.80,11,3,23,0.11
2013-7-11,78.5,68.6,57.9,61.0,58.3,55.3,95,72,49,30.05,29.94,8,2,13,0.00
2013-7-12,81.0,69.0,57.1,63.7,59.3,55.0,96,73,49,30.11,30.03,2,0,4,0.00
2013-7-13,85.1,72.2,58.9,68.7,63.8,57.4,96,77,56,30.14,30.08,0,0,0,0.00
2013-7-14,90.8,76.5,66.4,74.8,69.8,65.2,96,81,57,30.18,30.12,2,0,18,0.00
2013-7-15,92.1,81.1,71.9,77.5,74.3,70.7,97,81,60,30.24,30.18,3,0,9,0.00
2013-7-16,91.3,80.8,71.7,77.0,73.3,70.5,97,80,56,30.30,30.22,4,1,10,0.00
2013-7-17,90.4,81.2,71.3,77.8,73.9,70.1,96,80,59,30.29,30.14,5,2,9,0.00
2013-7-18,92.6,82.3,73.7,77.4,74.9,72.0,95,80,58,30.16,29.96,8,1,14,0.00
2013-7-19,91.2,83.9,76.7,78.5,76.0,73.6,90,78,63,29.97,29.75,11,3,19,0.00
2013-7-20,85.9,80.1,74.5,75.4,71.3,65.0,94,76,51,29.86,29.73,9,3,24,0.22
2013-7-21,88.2,76.4,65.5,73.0,67.8,63.7,95,76,54,29.94,29.84,2,0,7,0.00
2013-7-22,83.6,73.6,66.0,72.5,68.5,65.0,97,85,62,29.87,29.73,4,1,12,1.04
2013-7-23,80.2,72.3,62.3,72.1,66.5,56.8,97,83,67,29.87,29.68,13,4,20,0.00
2013-7-24,74.9,63.6,53.3,59.6,54.2,50.2,89,73,51,30.01,29.88,7,2,14,0.00
2013-7-25,79.2,65.9,54.3,60.5,57.0,53.3,97,75,47,30.09,30.01,3,1,6,0.00
2013-7-26,79.0,68.1,58.2,65.1,60.7,56.1,94,78,59,30.07,29.89,6,1,11,0.00
2013-7-27,73.2,67.1,59.2,65.8,61.7,53.3,94,83,69,29.89,29.78,12,4,23,0.05
2013-7-28,68.2,60.2,53.6,56.0,53.1,50.3,91,78,60,30.00,29.86,11,4,15,0.00
2013-7-29,73.7,63.0,51.6,61.3,56.1,49.9,94,79,63,30.17,30.00,7,2,12,0.00
2013-7-30,77.4,66.3,54.6,64.8,59.8,53.5,97,81,55,30.20,30.08,3,0,8,0.00
2013-7-31,70.5,67.5,64.9,68.8,65.7,63.1,97,94,89,30.08,29.90,8,1,10,0.13
2013-8-1,77.5,70.0,63.5,66.9,62.5,57.5,98,79,53,29.96,29.91,9,4,16,0.03
2013-8-2,78.6,64.3,56.6,71.2,62.1,55.2,97,93,78,29.97,29.83,6,1,23,2.15
2013-8-3,77.5,69.0,62.1,67.3,62.2,54.5,98,81,49,30.04,29.92,11,2,15,0.02
2013-8-4,75.6,65.9,55.9,59.7,56.5,54.2,95,73,50,30.16,30.05,6,2,16,0.00
2013-8-5,76.0,66.0,56.1,64.3,59.4,54.1,93,80,65,30.10,29.92,3,1,8,0.00
2013-8-6,81.3,70.7,62.7,71.8,66.1,60.6,95,86,73,29.92,29.86,3,1,7,0.00
2013-8-7,84.1,74.7,68.8,75.6,70.7,67.8,98,88,71,29.87,29.81,6,1,18,0.00
2013-8-8,77.2,71.8,66.7,70.6,67.6,64.3,96,87,76,29.95,29.87,3,1,9,0.00
2013-8-9,79.7,71.0,63.9,65.6,63.6,61.5,94,78,58,29.97,29.91,6,1,10,0.00
2013-8-15,77.8,61.5,47.9,58.4,52.6,46.8,97,76,45,30.18,30.09,2,0,12,0.00
2013-8-16,80.0,66.4,57.1,60.8,57.7,55.7,96,76,47,30.16,30.11,2,0,7,0.00
2013-8-17,79.7,66.2,54.3,61.7,57.7,53.5,97,77,46,30.22,30.14,2,1,7,0.00
2013-8-18,81.5,68.1,56.1,67.0,61.0,55.0,97,80,53,30.18,30.08,1,0,5,0.00
2013-8-19,83.1,69.8,58.2,68.5,63.0,57.4,98,81,56,30.11,30.02,3,1,9,0.00
2013-8-20,87.1,73.3,62.2,71.0,65.9,61.3,97,80,53,30.13,30.04,3,1,11,0.00
2013-8-21,87.0,75.4,65.6,72.4,68.4,63.9,95,80,57,30.11,29.97,6,1,10,0.00
2013-8-22,75.5,71.6,69.0,71.4,69.0,67.6,97,91,85,30.07,29.95,9,2,14,0.51
2013-8-23,82.4,71.8,63.2,68.5,64.0,59.0,98,79,46,30.14,30.04,5,1,8,0.00
2013-8-24,85.3,69.0,55.9,62.1,58.2,54.8,96,72,39,30.27,30.14,2,0,8,0.00
2013-8-25,87.3,72.1,60.3,69.2,63.6,58.2,94,77,51,30.27,30.16,4,1,11,0.00
2013-8-26,86.3,74.8,64.0,74.6,68.6,61.4,92,82,65,30.18,30.01,8,2,14,0.00
2013-8-27,90.3,80.2,73.1,78.4,73.7,70.0,90,81,66,30.01,29.85,8,2,11,0.00
2013-8-28,87.1,79.8,75.5,76.8,72.8,68.8,87,79,69,29.97,29.82,10,4,14,0.00
2013-8-29,90.6,76.7,66.9,73.4,70.4,66.0,98,82,52,30.04,29.96,2,0,7,0.00
2013-8-30,92.2,77.4,65.3,75.8,70.5,64.4,98,81,59,29.96,29.70,8,1,18,0.00
2013-8-31,79.9,75.1,70.8,73.2,71.4,69.8,97,89,74,29.81,29.70,6,2,10,0.10
2013-9-1,82.7,73.3,66.2,74.5,70.3,65.6,99,91,75,29.77,29.71,4,1,8,0.01
2013-9-2,77.9,71.9,60.8,70.4,65.1,55.9,97,80,58,29.93,29.72,12,4,16,0.00
2013-9-3,74.4,63.1,51.8,61.0,56.2,50.4,96,79,60,30.04,29.93,9,2,11,0.00
2013-9-4,80.2,65.4,53.1,63.5,58.0,52.3,98,79,50,30.11,30.03,8,2,12,0.00
2013-9-5,78.7,66.3,58.2,59.2,54.6,46.8,96,69,34,30.21,30.09,4,1,9,0.00
2013-9-6,83.8,64.8,51.5,62.7,54.1,47.9,90,71,43,30.24,30.05,3,1,8,0.00
2013-9-7,86.3,71.4,60.1,70.7,63.8,56.7,91,78,51,30.04,29.88,6,2,11,0.00
2013-9-8,75.4,70.1,65.3,68.8,66.2,63.1,96,87,77,29.99,29.90,4,1,10,0.00
2013-9-9,93.3,75.2,63.0,76.7,67.0,57.0,88,77,55,29.99,29.85,9,1,15,0.00
2013-9-10,94.1,83.0,74.8,73.8,71.6,68.2,91,71,45,30.01,29.89,11,3,14,0.00
2013-9-11,91.9,80.8,73.4,73.9,70.7,67.6,90,73,46,30.04,29.91,12,3,19,0.02
2013-9-12,81.0,71.9,62.2,70.8,64.8,55.3,96,80,49,29.96,29.82,10,4,17,0.75
2013-9-13,65.8,57.4,49.1,55.1,47.6,44.9,87,71,47,30.12,29.98,7,2,14,0.00
2013-9-14,70.6,53.6,41.7,51.3,44.7,40.7,97,76,37,30.21,30.08,4,1,8,0.00
2013-9-15,67.8,56.6,47.1,58.0,51.3,44.2,96,83,62,30.10,29.99,2,1,7,0.08
2013-9-16,68.6,59.5,53.0,55.9,53.4,48.3,96,82,54,30.31,30.10,4,1,8,0.00
2013-9-17,71.2,57.2,46.0,54.8,49.8,44.4,95,78,53,30.35,30.17,4,1,7,0.00
2013-9-18,82.4,66.1,55.0,63.6,56.9,48.7,93,74,50,30.17,29.97,2,1,10,0.00
2013-9-19,71.4,68.0,65.4,69.6,66.6,62.6,98,95,84,30.01,29.86,3,1,7,0.81
2013-9-20,73.8,71.3,67.2,70.4,68.3,62.2,97,90,82,29.88,29.74,10,2,14,0.12
2013-9-21,66.5,60.6,51.4,62.0,54.7,48.9,95,82,62,29.89,29.72,15,5,19,0.03
2013-9-22,66.4,56.9,48.8,51.2,48.2,45.1,94,74,50,30.04,29.89,11,2,13,0.00
2013-9-23,68.7,54.1,41.8,51.7,46.2,40.5,96,77,52,30.13,30.04,5,1,7,0.00
2013-9-24,70.8,56.0,44.8,53.0,47.9,43.5,95,76,49,30.10,29.94,4,1,8,0.00
2013-9-25,77.3,59.8,49.0,56.7,51.9,47.6,96,78,48,29.97,29.90,4,1,6,0.00
2013-9-26,82.5,61.3,49.7,58.0,52.3,46.6,98,76,34,30.08,29.94,3,0,6,0.00
2013-9-27,78.8,62.6,47.2,59.5,52.0,44.6,96,71,45,30.18,30.09,3,1,7,0.00
2013-9-28,82.8,65.6,52.3,59.5,55.5,50.7,95,73,42,30.14,29.97,8,2,9,0.00
2013-9-29,70.7,63.2,53.2,60.6,57.4,51.2,95,82,62,29.98,29.93,5,1,10,0.07
2013-9-30,74.9,56.8,46.5,61.0,53.1,45.7,98,89,61,30.01,29.91,3,1,9,0.00
2013-10-1,76.6,64.1,55.9,64.8,61.1,54.5,98,91,67,30.01,29.94,4,1,12,0.00
2013-10-2,81.3,68.0,61.1,69.4,64.9,60.2,98,91,67,30.06,29.97,2,0,6,0.00
2013-10-3,82.3,68.7,63.5,70.0,65.9,62.6,98,91,64,30.00,29.89,10,1,19,0.35
2013-10-4,78.8,70.1,65.0,73.6,67.6,63.8,97,92,79,29.98,29.91,3,1,19,1.20
2013-10-5,77.2,69.2,65.4,73.0,67.7,64.6,99,95,86,29.97,29.82,4,1,11,0.21
2013-10-6,68.4,60.7,50.4,67.5,57.2,43.5,97,89,71,29.83,29.68,15,3,18,0.27
2013-10-7,62.0,50.4,44.5,50.4,45.9,41.7,95,85,63,30.12,29.76,13,5,18,0.00
2013-10-8,75.7,56.5,45.5,55.0,49.1,44.2,97,79,44,30.24,30.12,4,1,8,0.00
2013-10-9,72.7,56.3,43.1,51.7,47.5,41.9,97,75,43,30.27,30.16,3,1,6,0.00
2013-10-10,77.0,57.3,44.5,54.4,49.0,43.6,98,77,41,30.19,30.08,2,0,4,0.00
2013-10-11,78.9,59.2,44.7,56.5,49.5,43.7,98,74,39,30.11,30.00,3,1,6,0.00
2013-10-12,79.9,63.5,50.1,63.3,55.4,49.3,98,78,43,30.09,29.98,5,1,12,0.00
2013-10-13,66.3,58.7,48.8,63.0,49.1,43.2,94,72,46,30.35,30.10,9,3,13,0.00
2013-10-14,67.1,52.6,41.8,49.5,45.1,40.5,97,78,48,30.39,30.21,5,1,9,0.00
2013-10-15,65.0,56.5,47.8,61.8,53.3,44.5,96,89,82,30.22,29.84,3,1,11,0.03
2013-10-16,63.5,53.2,47.8,61.4,48.9,44.7,93,85,81,29.94,29.84,11,5,17,0.00
2013-10-17,51.7,49.0,41.7,48.6,46.1,40.4,95,90,81,29.93,29.82,14,3,15,0.05
2013-10-18,60.4,47.3,38.5,49.4,42.7,37.7,98,85,61,29.97,29.89,13,4,19,0.01
2013-10-19,52.6,46.2,42.8,42.4,40.3,37.2,95,81,58,29.94,29.81,11,4,19,0.14
2013-10-20,63.5,51.4,40.4,46.1,41.6,36.8,88,70,53,29.93,29.83,7,2,17,0.00
2013-10-21,55.9,50.3,40.4,47.6,43.1,31.8,87,76,67,29.95,29.84,10,4,16,0.00
2013-10-22,46.6,37.9,33.1,36.2,31.4,28.0,95,78,48,30.00,29.91,8,3,16,0.11
2013-10-23,44.2,38.8,34.4,38.7,35.0,31.2,97,87,65,30.01,29.85,11,4,15,0.02
2013-10-24,42.7,38.0,32.9,35.3,32.6,29.6,92,81,70,30.26,30.00,12,4,17,0.00
2013-10-25,48.5,39.0,31.6,34.7,30.3,28.2,88,72,49,30.41,30.18,8,4,15,0.00
2013-10-26,53.7,44.9,38.0,41.6,35.2,29.8,89,69,60,30.17,29.84,16,6,23,0.00
2013-10-27,55.5,41.9,30.8,36.8,33.8,29.3,95,75,46,30.09,30.01,8,2,14,0.00
2013-10-28,59.7,42.6,30.5,43.2,35.4,28.7,94,78,49,30.34,30.07,3,1,6,0.00
2013-10-29,54.7,44.5,34.4,43.2,38.7,32.3,92,81,64,30.39,30.20,2,1,6,0.00
2013-10-30,62.0,52.3,39.1,59.8,48.9,37.8,97,88,77,30.21,29.91,3,1,6,0.23
2013-10-31,63.9,60.8,54.8,62.4,59.5,53.1,98,96,93,29.88,29.22,13,4,24,1.08
2013-11-1,53.6,48.6,45.9,51.6,44.8,42.7,94,87,77,29.71,29.29,20,7,26,0.02
2013-11-2,48.8,45.6,43.8,44.5,42.9,39.8,95,90,82,30.08,29.71,9,6,15,0.02
2013-11-3,49.9,43.3,37.9,40.7,38.7,36.3,95,84,66,30.35,30.09,5,2,7,0.00
2013-11-4,55.7,46.0,38.0,42.5,38.5,34.9,90,76,58,30.37,30.24,6,2,12,0.00
2013-11-5,56.8,52.2,48.1,49.8,45.7,42.9,89,79,72,30.33,30.11,5,1,9,0.00
2013-11-6,57.3,52.4,43.2,52.7,48.2,39.7,96,86,65,30.10,29.83,14,6,22,0.23
2013-11-7,46.4,41.0,34.8,39.8,34.0,29.6,87,76,54,30.23,30.06,12,7,20,0.00
2013-11-8,47.8,38.5,31.1,35.1,32.3,29.6,95,79,60,30.34,30.15,7,3,12,0.00
2013-11-9,59.2,50.2,42.7,44.3,38.7,32.6,74,65,55,30.14,29.90,20,8,28,0.00
2013-11-10,48.0,40.6,30.8,40.5,33.2,28.0,91,75,63,30.31,30.02,18,7,27,0.00
2013-11-11,47.7,39.4,29.2,40.5,33.7,23.5,95,80,68,30.38,30.08,12,4,20,0.07
2013-11-12,33.8,28.9,25.0,29.0,23.5,20.6,87,80,72,30.63,30.38,14,5,17,0.00
2013-11-13,38.4,29.1,20.0,24.4,21.2,17.8,91,73,52,30.61,30.29,14,5,17,0.00
2013-11-14,53.2,39.7,29.9,27.9,24.9,21.9,75,57,33,30.29,30.03,12,5,20,0.00
2013-11-15,52.8,45.5,41.3,34.2,30.5,26.3,71,56,48,30.06,30.00,6,2,11,0.00
2013-11-16,58.2,49.8,39.7,56.5,46.3,33.3,94,88,73,30.04,29.73,12,3,20,0.05
2013-11-17,62.9,57.4,47.1,60.8,54.6,40.9,97,90,75,29.73,29.27,22,7,48,1.10
2013-11-18,46.7,40.8,37.7,40.9,35.0,31.0,90,80,72,30.19,29.67,21,10,26,0.00
2013-11-19,45.8,36.6,29.4,31.2,29.0,26.0,87,74,53,30.36,30.20,11,3,15,0.00
2013-11-20,44.2,36.3,27.6,35.1,29.4,24.5,88,76,62,30.38,30.19,7,2,13,0.00
2013-11-21,47.9,45.1,41.7,47.1,42.0,35.0,97,89,73,30.26,30.16,4,2,9,0.57
2013-11-22,47.8,41.1,32.3,47.0,38.9,29.1,97,92,81,30.42,30.16,14,7,20,0.02
2013-11-23,31.6,26.5,18.8,28.7,22.3,15.3,91,84,72,30.63,30.38,22,9,27,0.00
2013-11-24,25.4,20.1,15.1,18.0,14.8,9.3,93,80,66,30.70,30.50,12,3,15,0.00
2013-11-25,31.3,26.2,18.3,26.9,18.8,10.8,88,74,62,30.50,30.17,11,4,17,0.00
2013-11-26,34.7,31.1,27.6,30.1,27.1,24.2,91,85,76,30.16,29.98,10,4,18,0.00
2013-11-27,27.3,25.1,22.9,24.5,21.6,18.8,95,86,77,30.27,30.02,12,7,17,0.00
2013-11-28,33.9,27.2,21.7,23.4,19.1,15.9,79,71,59,30.45,30.24,7,3,14,0.00
2013-11-29,38.3,30.1,21.8,24.4,22.3,18.3,88,73,56,30.65,30.47,7,2,10,0.00
2013-11-30,49.7,35.9,28.8,33.9,27.6,22.7,81,72,53,30.51,30.12,8,2,15,0.00
2013-12-1,44.7,37.0,27.1,37.4,31.3,25.6,94,80,60,30.12,30.00,6,2,10,0.00
2013-12-2,38.7,33.1,26.3,32.4,30.0,25.1,95,89,76,30.00,29.84,4,2,9,0.01
2013-12-3,49.3,41.5,34.1,46.5,39.7,32.3,96,93,90,29.84,29.76,5,2,9,0.14
2013-12-4,58.9,51.1,44.4,56.7,49.7,43.3,98,95,92,29.81,29.61,8,2,11,0.00
2013-12-5,58.7,38.3,27.1,56.2,34.2,21.9,92,85,78,30.20,29.62,15,9,23,0.00
2013-12-6,28.3,26.9,24.4,24.0,21.7,17.8,85,80,75,30.45,30.18,12,7,15,0.00
2013-12-7,25.0,20.7,14.5,18.3,14.9,11.3,88,78,65,30.66,30.46,11,5,14,0.00
2013-12-8,26.2,21.8,15.5,24.7,17.1,11.7,94,82,70,30.59,30.01,13,3,16,0.00
2013-12-9,28.9,23.7,16.6,27.1,19.8,9.4,95,85,71,30.23,29.96,18,10,25,0.00
2013-12-10,24.6,14.0,3.0,17.8,7.8,-1.2,83,76,66,30.32,30.10,21,8,31,0.00
2013-12-11,23.8,18.1,8.8,20.0,13.8,3.9,92,83,70,30.53,30.33,14,6,20,0.00
2013-12-12,22.5,9.6,-1.8,14.1,3.2,-5.2,86,76,60,30.57,30.31,13,6,18,0.00
2013-12-13,30.9,22.0,10.7,24.9,15.7,6.8,92,76,64,30.31,30.17,5,1,10,0.00
2013-12-14,26.6,24.9,21.7,25.1,23.1,19.0,94,93,89,30.19,29.84,10,4,13,0.00
2013-12-15,25.8,17.7,11.1,23.5,14.7,8.0,92,88,84,30.14,29.92,15,8,20,0.00
2013-12-16,21.7,15.8,8.8,16.5,12.1,6.5,93,85,72,30.20,30.05,6,1,9,0.00
2013-12-17,27.3,21.7,17.7,25.3,19.8,16.0,94,92,86,30.10,30.00,12,5,18,0.00
2013-12-18,34.9,21.3,14.0,24.0,16.2,11.6,91,81,64,30.25,29.95,7,3,12,0.00
2013-12-19,44.5,40.2,35.4,38.9,34.6,24.8,90,80,65,30.00,29.86,9,3,15,0.16
2013-12-20,52.2,44.9,41.5,51.9,44.0,39.3,99,97,90,29.85,29.70,13,1,20,0.29
2013-12-21,42.6,35.9,34.3,41.8,35.2,33.4,98,97,96,29.82,29.57,10,3,15,1.33
2013-12-22,36.2,34.5,31.4,35.0,33.4,30.4,98,96,91,30.03,29.49,13,5,20,0.22
2013-12-23,31.0,25.5,11.4,30.0,22.7,8.0,96,89,80,30.43,30.05,15,8,22,0.00
2013-12-24,18.9,10.4,4.0,13.2,7.2,1.5,90,87,77,30.59,30.44,12,5,20,0.00
2013-12-25,26.1,22.6,16.4,24.6,18.8,12.9,94,85,80,30.50,30.15,6,2,13,0.00
2013-12-26,32.9,26.0,18.4,27.4,21.9,15.1,95,84,76,30.34,30.11,12,6,22,0.00
2013-12-27,42.1,35.2,26.2,34.1,30.2,24.2,92,82,72,30.35,30.17,9,4,15,0.00
2013-12-28,48.5,40.7,34.1,37.5,33.7,30.9,88,76,64,30.17,29.92,8,4,14,0.00
2013-12-29,40.2,34.5,25.0,33.9,29.1,22.8,93,81,67,30.07,29.77,16,7,24,0.00
2013-12-30,24.7,19.2,15.3,21.4,14.4,12.1,91,82,70,30.30,30.08,14,6,17,0.00
2013-12-31,16.7,14.5,9.5,13.7,11.2,6.1,92,87,76,30.40,30.18,12,6,20,0.00
2014-1-1,20.9,17.7,15.1,16.7,14.8,12.7,91,88,83,30.34,30.17,7,3,11,0.00
2014-1-2,15.2,12.7,3.6,12.6,8.9,-0.6,91,85,71,30.38,30.06,17,4,18,0.00